Change the Weather History Date:

Saturday, June 23, 2012

  Actual Average Record
Temperature  
Mean Temperature 73 °F -  
Max Temperature 78 °F 78 °F 80 °F (2006)
Min Temperature 68 °F 62 °F 57 °F (2011)
Cooling Degree Days 8    
Growing Degree Days 23 (Base 50)    
Moisture  
Dew Point 65 °F    
Average Humidity 77    
Maximum Humidity 94    
Minimum Humidity 52    
Precipitation  
Precipitation 0.00 in 0.04 in - ()
Sea Level Pressure  
Sea Level Pressure 29.99 in    
Wind  
Wind Speed 7 mph ()    
Max Wind Speed 15 mph    
Max Gust Speed -    
Visibility 7.4 miles    
Events      
Averages and records for this station are not official NWS values.
T = Trace of Precipitation, MM = Missing Value Source: Averaged Metar Reports

Daily Weather History Graph

Daily Weather History Graph

Search for Another Location

Airport or City:

Trip Planner

Search our weather history database for the weather conditions in past years. The results will help you decide how hot, cold, wet, or windy it might be!

Date:

Astronomy

Jun. 23, 2012 Rise Set
Actual Time 6:45 AM AEST 5:52 PM AEST
Civil Twilight 6:22 AM AEST 6:16 PM AEST
Nautical Twilight 5:55 AM AEST 6:43 PM AEST
Astronomical Twilight 5:28 AM AEST 7:10 PM AEST
Moon 9:13 AM AEST (6/23) 9:05 PM AEST (6/23)
Length of Visible Light 11h 54m
Length of Day
11h 07m
Waxing Crescent, 12% of the Moon is Illuminated
Jun 23
Waxing Crescent
Jun 27
First Quarter
Jul 4
Full
Jul 11
Last Quarter
Jul 19
New

Hourly Weather History & Observations

Time (AEST) Temp. Dew Point Humidity Pressure Visibility Wind Dir Wind Speed Gust Speed Precip Events Conditions
12:00 AM 71 °F 66 °F 79% 29.99 in - South 5.8 mph - -   Overcast
12:00 AM 71.6 °F 66.2 °F 83% 29.98 in 6.2 mi South 5.8 mph - N/A   Mostly Cloudy
12:30 AM 71.6 °F 66.2 °F 83% 29.98 in 6.2 mi South 5.8 mph - N/A   Mostly Cloudy
1:00 AM 71 °F 66 °F 81% 29.99 in - South 6.9 mph - -  
1:00 AM 71.6 °F 66.2 °F 83% 29.98 in 6.2 mi South 6.9 mph - N/A   Mostly Cloudy
1:30 AM 71.6 °F 66.2 °F 83% 29.98 in 6.2 mi SSW 5.8 mph - N/A   Mostly Cloudy
2:00 AM 71.6 °F 66.2 °F 83% 29.98 in 6.2 mi South 6.9 mph - N/A   Mostly Cloudy
2:29 AM 69.8 °F 68.0 °F 94% 29.98 in 3.7 mi South 6.9 mph - N/A   Heavy Drizzle
3:00 AM 70 °F 68 °F 90% 29.96 in - South 5.8 mph - -   Overcast
3:00 AM 69.8 °F 68.0 °F 94% 29.95 in 6.2 mi South 5.8 mph - N/A   Mostly Cloudy
3:30 AM 69.8 °F 68.0 °F 94% 29.95 in 6.2 mi South 6.9 mph - N/A   Mostly Cloudy
4:00 AM 70 °F 67 °F 88% 29.96 in - South 6.9 mph - -  
4:00 AM 69.8 °F 68.0 °F 94% 29.95 in 6.2 mi South 6.9 mph - N/A   Mostly Cloudy
4:30 AM 69.8 °F 66.2 °F 88% 29.95 in 6.2 mi South 5.8 mph - N/A   Overcast
5:00 AM 69.8 °F 66.2 °F 88% 29.95 in 6.2 mi South 4.6 mph - N/A   Mostly Cloudy
5:30 AM 69.8 °F 66.2 °F 88% 29.95 in 6.2 mi SSE 5.8 mph - N/A   Mostly Cloudy
6:00 AM 69 °F 67 °F 89% 29.97 in 19 mi SSE 6.9 mph - -   Partly Cloudy
6:00 AM 69.8 °F 66.2 °F 88% 29.95 in 6.2 mi SSE 6.9 mph - N/A   Mostly Cloudy
6:30 AM 68.0 °F 66.2 °F 94% 29.98 in 6.2 mi SE 5.8 mph - N/A   Scattered Clouds
7:00 AM 69 °F 67 °F 91% 29.99 in - SE 1.2 mph - -  
7:00 AM 69.8 °F 66.2 °F 88% 29.98 in 6.2 mi SE 1.2 mph - N/A   Mostly Cloudy
7:30 AM 69.8 °F 68.0 °F 94% 29.98 in 6.2 mi SSE 5.8 mph - N/A   Light Drizzle
8:00 AM 69.8 °F 66.2 °F 88% 30.01 in 5.6 mi South 8.1 mph - N/A   Mostly Cloudy
8:30 AM 69.8 °F 68.0 °F 94% 30.01 in 6.2 mi SSE 8.1 mph - N/A   Mostly Cloudy
9:00 AM 71 °F 68 °F 87% 30.02 in 12 mi SSE 8.1 mph - -   Partly Cloudy
9:00 AM 71.6 °F 68.0 °F 88% 30.01 in 6.2 mi SSE 8.1 mph - N/A   Mostly Cloudy
9:30 AM 71.6 °F 68.0 °F 88% 30.01 in 6.2 mi South 8.1 mph - N/A   Mostly Cloudy
10:00 AM 73 °F 67 °F 78% 30.03 in - South 6.9 mph - -  
10:00 AM 73.4 °F 68.0 °F 83% 30.01 in 6.2 mi South 6.9 mph - N/A   Scattered Clouds
10:30 AM 73.4 °F 64.4 °F 73% 30.01 in 6.2 mi SSW 6.9 mph - N/A   Mostly Cloudy
11:00 AM 75.2 °F 64.4 °F 69% 30.01 in 6.2 mi South 11.5 mph - N/A   Scattered Clouds
11:30 AM 75.2 °F 64.4 °F 69% 30.01 in 6.2 mi SSE 13.8 mph - N/A   Scattered Clouds
12:00 PM 77 °F 64 °F 56% 30.00 in 19 mi SE 11.5 mph - -   Partly Cloudy
12:00 PM 77.0 °F 64.4 °F 65% 29.98 in 6.2 mi SE 11.5 mph - N/A   Scattered Clouds
12:30 PM 77.0 °F 64.4 °F 65% 29.98 in 6.2 mi SSE 10.4 mph - N/A   Mostly Cloudy
1:00 PM 78 °F 65 °F 55% 29.98 in - SSE 10.4 mph - -  
1:00 PM 77.0 °F 64.4 °F 65% 29.98 in 6.2 mi SSE 10.4 mph - N/A   Scattered Clouds
1:30 PM 78.8 °F 64.4 °F 61% 29.95 in 6.2 mi SE 12.7 mph - N/A   Scattered Clouds
2:00 PM 78.8 °F 64.4 °F 61% 29.95 in 6.2 mi SE 15.0 mph - N/A   Partly Cloudy
2:30 PM 77.0 °F 64.4 °F 65% 29.95 in 6.2 mi SE 13.8 mph - N/A   Partly Cloudy
3:00 PM 78 °F 64 °F 52% 29.94 in 19 mi ESE 13.8 mph - -   Partly Cloudy
3:00 PM 77.0 °F 64.4 °F 65% 29.92 in 6.2 mi ESE 13.8 mph - N/A   Partly Cloudy
3:30 PM 77.0 °F 62.6 °F 61% 29.95 in 6.2 mi ESE 12.7 mph - N/A   Partly Cloudy
4:00 PM 76 °F 63 °F 56% 29.96 in - SE 13.8 mph - -  
4:00 PM 75.2 °F 62.6 °F 65% 29.95 in 6.2 mi SE 13.8 mph - N/A   Partly Cloudy
4:30 PM 75.2 °F 62.6 °F 65% 29.95 in 6.2 mi SE 15.0 mph - N/A   Partly Cloudy
5:00 PM 73.4 °F 64.4 °F 73% 29.95 in 6.2 mi SE 12.7 mph - N/A   Partly Cloudy
5:30 PM 73.4 °F 64.4 °F 73% 29.98 in 6.2 mi SE 10.4 mph - N/A   Partly Cloudy
6:00 PM 71 °F 63 °F 70% 29.98 in 19 mi SSE 9.2 mph - -   Partly Cloudy
6:00 PM 71.6 °F 62.6 °F 73% 29.98 in 6.2 mi SSE 9.2 mph - N/A   Partly Cloudy
6:30 PM 69.8 °F 64.4 °F 83% 29.98 in 6.2 mi SE 8.1 mph - N/A   Partly Cloudy
7:00 PM 70 °F 64 °F 74% 30.01 in - SSE 8.1 mph - -  
7:00 PM 69.8 °F 64.4 °F 83% 30.01 in 6.2 mi SSE 8.1 mph - N/A   Partly Cloudy
7:30 PM 69.8 °F 62.6 °F 78% 30.01 in 6.2 mi South 8.1 mph - N/A   Partly Cloudy
8:00 PM 69.8 °F 62.6 °F 78% 30.01 in 6.2 mi South 9.2 mph - N/A   Partly Cloudy
8:30 PM 69.8 °F 60.8 °F 73% 30.04 in 6.2 mi South 9.2 mph - N/A   Partly Cloudy
9:00 PM 68 °F 61 °F 73% 30.04 in 19 mi SSE 9.2 mph - -   Partly Cloudy
9:00 PM 68.0 °F 60.8 °F 78% 30.04 in 6.2 mi SSE 9.2 mph - N/A   Partly Cloudy
9:30 PM 69.8 °F 60.8 °F 73% 30.04 in 6.2 mi South 9.2 mph - N/A   Partly Cloudy
10:00 PM 69 °F 60 °F 67% 30.05 in - South 11.5 mph - -  
10:00 PM 69.8 °F 60.8 °F 73% 30.04 in 6.2 mi South 11.5 mph - N/A   Partly Cloudy
10:30 PM 69.8 °F 60.8 °F 73% 30.04 in 6.2 mi South 11.5 mph - N/A   Partly Cloudy
11:00 PM 69.8 °F 60.8 °F 73% 30.04 in 6.2 mi South 11.5 mph - N/A   Partly Cloudy
11:30 PM 69.8 °F 60.8 °F 73% 30.04 in 6.2 mi South 10.4 mph - N/A   Partly Cloudy